Weather in Flic-en-Flac

Mauritius     20°16′53″S   57°22′18″E
temp.,
°C
wind,
m/s
gust,
m/s
humid.,
%
clouds,
%
prec.,
mm/h
press.,
hPa
HPBL,
m
25 february, thu
thu2501:00+26ese57715 0.0 1012819
04:00+26ese56704 0.0 1011851
07:00+26se44721 0.0 1012580
10:00+27n12661 0.0 1013653
13:00+28ne457037 0.2 1011983
16:00+28ene667157 0.9 10101071
19:00+27e787127 0.2 1011890
22:00+27e687514 0.3 1013800
26 february, fri
fri2601:00+26e57750 0.0 1012845
04:00+26e56740 0.0 1011802
07:00+26e57750 0.0 1012732
10:00+27ene78746 0.1 10131045
13:00+29ene67686 0.1 1012891
16:00+29ene77693 0.1 10101160
19:00+27e68710 0.0 10111000
22:00+27e68740 0.0 10121069
27 february, sat
sat2701:00+27ene68774 0.3 1011893
04:00+26e68772 0.4 1010770
07:00+26ese68750 0.0 1011697
10:00+28e46670 0.0 10121183
13:00+28ne23664 0.0 1010623
16:00+28nw236831 0.3 1009588
19:00+28se347041 0.2 1010947
22:00+27e567320 0.4 1012747
28 february, sun
sun2801:00+26e34750 0.1 1011653
04:00+26ese467726 0.8 1010758
07:00+26ese57772 0.4 1010696
10:00+28e35681 0.7 1011898
13:00+28sw11671 0.1 1010486
16:00+28ssw34664 0.1 1008866
19:00+27sse88687 0.0 1009689
22:00+26se46674 0.0 1012891
1 march, mon
mon101:00+26se24670 0.0 1011669
04:00+26se13745 0.1 1009557
07:00+26sse23760 0.0 1010500
10:00+28se24701 0.1 1011737
13:00+29s346810 0.1 1010692
16:00+28sse467311 0.6 1009651
19:00+28se567248 0.9 1010799
22:00+27ese477424 1.1 1012845